Weather History for Antigo, WI

Change the Weather History Date:

Tuesday, May 13, 2014

  Actual Average Record
Temperature  
Mean Temperature 51 °F -  
Max Temperature 57 °F 64 °F 85 °F (1977)
Min Temperature 45 °F 39 °F 23 °F (1953)
Degree Days  
Heating Degree Days 14    
Growing Degree Days 1 (Base 50)    
Moisture  
Dew Point 44 °F    
Average Humidity 78    
Maximum Humidity 100    
Minimum Humidity 56    
Precipitation  
Precipitation 0.00 in - - ()
Sea Level Pressure  
Sea Level Pressure 29.91 in    
Wind  
Wind Speed 12 mph (West)    
Max Wind Speed 21 mph    
Max Gust Speed 25 mph    
Visibility 8 miles    
Events Fog    
Averages and records for this station are not official NWS values.
T = Trace of Precipitation, MM = Missing Value Source: NWS Daily Summary

Daily Weather History Graph

Daily Weather History Graph

Search for Another Location

Airport:

Trip Planner

Search our weather history database for the weather conditions in past years. The results will help you decide how hot, cold, wet, or windy it might be!

Date:

Astronomy

May. 13, 2014 Rise Set
Actual Time 5:29 AM CDT 8:17 PM CDT
Civil Twilight 4:55 AM CDT 8:51 PM CDT
Nautical Twilight 4:12 AM CDT 9:34 PM CDT
Astronomical Twilight 3:21 AM CDT 10:25 PM CDT
Moon 7:15 PM CDT (5/13) 4:50 AM CDT (5/13)
Length of Visible Light 15h 56m
Length of Day
14h 47m
Waxing Gibbous, 99% of the Moon is Illuminated
May 13
Waxing Gibbous
May 14
Full
May 21
Last Quarter
May 28
New
Jun 5
First Quarter

Hourly Weather History & Observations

Time (CDT) Temp. Windchill Dew Point Humidity Pressure Visibility Wind Dir Wind Speed Gust Speed Precip Events Conditions
12:15 AM 50.2 °F - 50.2 °F 100% 29.80 in 0.5 mi SE 13.8 mph - N/A Fog Fog
12:35 AM 51.8 °F - 51.8 °F 100% 29.79 in 0.5 mi SSE 15.0 mph - N/A Fog Fog
12:55 AM 52.0 °F - 52.0 °F 100% 29.78 in 0.5 mi South 12.7 mph - N/A Fog Fog
1:15 AM 52.9 °F - 52.9 °F 100% 29.76 in 1.2 mi South 10.4 mph - N/A   Overcast
1:35 AM 54.1 °F - 54.1 °F 100% 29.74 in 4.0 mi South 10.4 mph - N/A   Overcast
1:55 AM 54.0 °F - 54.0 °F 100% 29.74 in 3.0 mi South 8.1 mph - N/A   Overcast
2:15 AM 53.6 °F - 53.6 °F 100% 29.73 in 2.5 mi South 8.1 mph - N/A   Overcast
2:35 AM 53.2 °F - 53.2 °F 100% 29.72 in 1.0 mi SSE 5.8 mph - N/A   Overcast
2:55 AM 53.2 °F - 53.2 °F 100% 29.71 in 0.8 mi South 6.9 mph - N/A   Overcast
3:15 AM 54.1 °F - 54.1 °F 100% 29.71 in 2.0 mi SSW 5.8 mph - N/A   Overcast
3:35 AM 55.0 °F - 55.0 °F 100% 29.71 in 3.0 mi SSW 10.4 mph - N/A   Overcast
3:55 AM 57.7 °F - 57.7 °F 100% 29.71 in 7.0 mi SW 13.8 mph - N/A   Overcast
4:15 AM 56.1 °F - 55.9 °F 99% 29.72 in 10.0 mi WSW 17.3 mph - N/A   Overcast
4:35 AM 53.2 °F - 52.5 °F 97% 29.74 in 10.0 mi West 20.7 mph 25.3 mph N/A   Overcast
4:55 AM 51.4 °F - 50.2 °F 95% 29.75 in 10.0 mi WSW 16.1 mph - N/A   Overcast
5:15 AM 49.5 °F - 48.6 °F 97% 29.77 in 10.0 mi West 13.8 mph 21.9 mph N/A   Overcast
5:35 AM 48.9 °F - 48.0 °F 97% 29.78 in 7.0 mi West 13.8 mph 19.6 mph N/A   Overcast
5:55 AM 48.2 °F - 46.8 °F 95% 29.79 in 10.0 mi WSW 9.2 mph 13.8 mph N/A   Overcast
6:15 AM 47.8 °F - 46.4 °F 95% 29.81 in 10.0 mi West 11.5 mph - N/A   Overcast
6:35 AM 47.5 °F - 46.0 °F 95% 29.82 in 10.0 mi West 11.5 mph - N/A   Overcast
6:55 AM 46.8 °F - 44.1 °F 90% 29.84 in 10.0 mi West 15.0 mph 19.6 mph N/A   Overcast
8:15 AM 46.6 °F - 42.8 °F 87% 29.85 in 10.0 mi West 11.5 mph - N/A   Mostly Cloudy
8:35 AM 47.3 °F - 42.6 °F 84% 29.86 in 10.0 mi West 11.5 mph - N/A   Overcast
9:15 AM 49.3 °F - 43.7 °F 81% 29.86 in 10.0 mi WNW 12.7 mph 19.6 mph N/A   Overcast
10:55 AM 51.4 °F - 43.0 °F 73% 29.88 in 10.0 mi West 12.7 mph 21.9 mph N/A   Overcast
11:35 AM 52.9 °F - 43.2 °F 70% 29.88 in 10.0 mi WNW 16.1 mph - N/A   Overcast
12:15 PM 52.2 °F - 44.6 °F 75% 29.90 in 10.0 mi West 15.0 mph 20.7 mph N/A   Overcast
12:35 PM 52.9 °F - 44.2 °F 72% 29.91 in 10.0 mi West 17.3 mph 25.3 mph N/A   Overcast
12:55 PM 52.5 °F - 43.5 °F 71% 29.91 in 10.0 mi West 17.3 mph 21.9 mph N/A   Overcast
1:15 PM 52.7 °F - 42.8 °F 69% 29.92 in 10.0 mi West 17.3 mph 23.0 mph N/A   Overcast
1:35 PM 53.1 °F - 42.4 °F 67% 29.93 in 10.0 mi West 15.0 mph 19.6 mph N/A   Overcast
1:55 PM 53.1 °F - 40.8 °F 63% 29.93 in 10.0 mi West 11.5 mph 18.4 mph N/A   Overcast
2:15 PM 54.0 °F - 40.8 °F 61% 29.94 in 10.0 mi WNW 15.0 mph 23.0 mph N/A   Overcast
2:35 PM 54.7 °F - 40.8 °F 60% 29.94 in 10.0 mi NW 17.3 mph 23.0 mph N/A   Mostly Cloudy
2:55 PM 54.5 °F - 40.3 °F 59% 29.95 in 10.0 mi WNW 18.4 mph 23.0 mph N/A   Mostly Cloudy
3:15 PM 55.0 °F - 40.6 °F 58% 29.95 in 10.0 mi WNW 13.8 mph 21.9 mph N/A   Mostly Cloudy
3:35 PM 54.5 °F - 40.5 °F 59% 29.96 in 10.0 mi WNW 15.0 mph 21.9 mph N/A   Mostly Cloudy
3:55 PM 55.0 °F - 39.7 °F 56% 29.96 in 10.0 mi WNW 15.0 mph 24.2 mph N/A   Overcast
4:15 PM 53.2 °F - 39.6 °F 60% 29.97 in 10.0 mi NW 15.0 mph - N/A   Overcast
4:35 PM 53.1 °F - 39.7 °F 61% 29.97 in 10.0 mi WNW 13.8 mph - N/A   Overcast
4:55 PM 52.2 °F - 38.3 °F 59% 29.98 in 10.0 mi WNW 17.3 mph 24.2 mph N/A   Overcast
5:15 PM 51.8 °F - 38.8 °F 61% 29.98 in 10.0 mi WNW 15.0 mph 23.0 mph N/A   Overcast
5:35 PM 51.6 °F - 38.7 °F 61% 29.99 in 10.0 mi WNW 18.4 mph 21.9 mph N/A   Overcast
5:55 PM 50.9 °F - 38.1 °F 62% 30.00 in 10.0 mi WNW 16.1 mph - N/A   Overcast
6:15 PM 50.4 °F - 38.3 °F 63% 30.01 in 10.0 mi WNW 15.0 mph 20.7 mph N/A   Overcast
6:35 PM 50.0 °F - 37.8 °F 63% 30.01 in 10.0 mi West 15.0 mph - N/A   Overcast
6:55 PM 49.6 °F - 37.8 °F 64% 30.02 in 10.0 mi West 13.8 mph - N/A   Overcast
7:15 PM 49.5 °F - 37.9 °F 65% 30.03 in 10.0 mi West 12.7 mph 17.3 mph N/A   Overcast
7:35 PM 49.1 °F - 37.8 °F 65% 30.03 in 10.0 mi WNW 9.2 mph - N/A   Overcast
7:55 PM 49.1 °F - 37.8 °F 65% 30.04 in 10.0 mi WNW 10.4 mph - N/A   Overcast
8:15 PM 48.7 °F - 37.9 °F 66% 30.04 in 10.0 mi WNW 9.2 mph - N/A   Overcast
8:35 PM 48.4 °F - 38.1 °F 68% 30.05 in 10.0 mi West 9.2 mph - N/A   Overcast
8:55 PM 47.3 °F - 38.3 °F 71% 30.05 in 10.0 mi West 5.8 mph - N/A   Mostly Cloudy
9:15 PM 47.3 °F - 39.0 °F 73% 30.06 in 10.0 mi West 6.9 mph - N/A   Overcast
9:35 PM 46.0 °F 42.5 °F 38.7 °F 75% 30.08 in 10.0 mi West 6.9 mph - N/A   Overcast
9:55 PM 46.0 °F 42.5 °F 38.5 °F 75% 30.08 in 10.0 mi West 6.9 mph - N/A   Overcast
10:15 PM 46.4 °F 42.9 °F 38.3 °F 73% 30.08 in 10.0 mi West 6.9 mph - N/A   Overcast
10:35 PM 45.9 °F 42.9 °F 37.9 °F 74% 30.09 in 10.0 mi WNW 5.8 mph - N/A   Overcast
11:15 PM 45.0 °F 41.8 °F 38.3 °F 77% 30.10 in 10.0 mi West 5.8 mph - N/A   Overcast
11:35 PM 45.0 °F 43.5 °F 38.7 °F 79% 30.10 in 10.0 mi West 3.5 mph - N/A   Overcast
11:55 PM 45.1 °F 42.8 °F 38.7 °F 78% 30.10 in 10.0 mi West 4.6 mph - N/A   Overcast